星链-3873 (STARLINK-3873 )

导读

STARLINK-3873是美国SpaceX公司星链星座中的一颗低轨卫星互联网卫星,于2022年5月6日由猎鹰9号火箭发射入轨。它隶属于星链项目,该项目计划最终部署超4万颗卫星,为全球提供高速低延迟卫星互联网服务。作为星链星座的组网卫星之一,它承担着为偏远地区、移动场景提供互联网接入的任务,助力星链实现全球覆盖的目标,目前仍在近地轨道服役。

基本信息
目录编号:
52467
目录名称:
STARLINK-3873
国际标识:
2022-049S
轨道中心:
EARTH
卫星名称:
星链-3873
卫星全名:
星链-3873 (STARLINK-3873 )
卫星状态:
在轨 (已飞行1582 天)
发射日期:
2022-05-06 UTC
国别 :
美国 (US)
星等 :
--
轨道信息
数据来源 国际轨道数据
星历时间: 2026-09-03T22:41:18+0800
19小时前
查看轨道信息
半长轴: 6840.881km
偏心率: 0.0001041
轨道倾角: 53.161°
近地点辐角 85.737°
升交点赤经 332.399°
平近点角 274.375°
近地点: 462.031km
远地点: 463.457km
周期: 93.849分钟
每日圈数: 15.343863
详细信息
固有亮度:
5
最大亮度:
2.5
卫星平台:
Starlink v1.5
覆盖范围:
全球
运营商:
太空探索技术公司
运营商所在国:
美国
制造商(研发单位):
太空探索技术公司
制造商所在国:
美国
使用方式:
暂无
卫星简介
星链(Starlink)计划是由太空探索技术公司(SpaceX)提出的一个巨型低轨卫星互联网星座项目,计划在2019年至2024年间在太空搭建由约1.2万颗卫星组成的“星链”网络,其中1584颗将部署在地球上空550千米处的近地轨道,并从2020年开始工作。该卫星仍在工作。
2D轨道图
3D轨道图
轨道高度分析图
轨道倾角分析图
轨道综合分析图
查看轨道综合分析图